| time (UTC) | temp F | wind direction | speed MPH | gust MPH | rain 1hr in | rain 24hr in | rain mn in | humidity % | barometer mb |
| 20260507175539 | 60 | 0 | 0.0 | 1.0 | 0.00 | 0.00 | 0.00 | 85 | 1013.7 |
| 20260507175039 | 60 | 0 | 0.0 | 1.0 | 0.00 | 0.00 | 0.00 | 85 | 1013.6 |
| 20260507174551 | 60 | 0 | 0.0 | 2.0 | 0.00 | 0.00 | 0.00 | 85 | 1013.7 |
| 20260507174041 | 60 | 0 | 0.0 | 2.0 | 0.00 | 0.00 | 0.00 | 86 | 1013.7 |
| 20260507173539 | 59 | 0 | 0.0 | 1.0 | 0.00 | 0.00 | 0.00 | 86 | 1013.7 |
| 20260507173057 | 59 | 0 | 0.0 | 1.0 | 0.00 | 0.00 | 0.00 | 87 | 1013.7 |
| 20260507172543 | 59 | 74 | 0.0 | 1.0 | 0.00 | 0.00 | 0.00 | 87 | 1013.7 |
| 20260507172038 | 59 | 0 | 0.0 | 1.0 | 0.00 | 0.00 | 0.00 | 86 | 1013.7 |
| 20260507171555 | 59 | 0 | 0.0 | 1.0 | 0.00 | 0.00 | 0.00 | 86 | 1013.8 |
| 20260507171039 | 59 | 0 | 0.0 | 1.0 | 0.00 | 0.00 | 0.00 | 86 | 1013.8 |
| 20260507170539 | 59 | 0 | 0.0 | 0.0 | 0.00 | 0.00 | 0.00 | 86 | 1013.9 |
| 20260507170054 | 59 | 0 | 0.0 | 0.0 | 0.00 | 0.00 | 0.00 | 86 | 1014.0 |
| 20260507165538 | 59 | 0 | 0.0 | 1.0 | 0.00 | 0.00 | 0.00 | 86 | 1014.0 |
| 20260507165040 | 60 | 0 | 0.0 | 2.0 | 0.00 | 0.00 | 0.00 | 86 | 1014.1 |
| 20260507164554 | 60 | 0 | 0.0 | 2.0 | 0.00 | 0.00 | 0.00 | 86 | 1014.0 |
| 20260507164038 | 60 | 0 | 0.0 | 1.0 | 0.00 | 0.00 | 0.00 | 86 | 1014.0 |
| 20260507163542 | 60 | 0 | 0.0 | 1.0 | 0.00 | 0.00 | 0.00 | 85 | 1014.0 |
| 20260507163051 | 60 | 0 | 0.0 | 1.0 | 0.00 | 0.00 | 0.00 | 85 | 1014.1 |
| 20260507162540 | 60 | 0 | 0.0 | 1.0 | 0.00 | 0.00 | 0.00 | 85 | 1014.1 |
| 20260507162041 | 60 | 0 | 0.0 | 2.0 | 0.00 | 0.00 | 0.00 | 84 | 1014.3 |
| 20260507161548 | 60 | 87 | 0.0 | 2.0 | 0.00 | 0.00 | 0.00 | 84 | 1014.3 |
| 20260507161039 | 60 | 0 | 0.0 | 1.0 | 0.00 | 0.00 | 0.00 | 84 | 1014.2 |
| 20260507160543 | 60 | 0 | 0.0 | 1.0 | 0.00 | 0.00 | 0.00 | 84 | 1014.3 |
| 20260507160058 | 61 | 88 | 0.0 | 1.0 | 0.00 | 0.00 | 0.00 | 84 | 1014.3 |
| 20260507155538 | 61 | 0 | 0.0 | 1.0 | 0.00 | 0.00 | 0.00 | 84 | 1014.3 |
| 20260507155042 | 61 | 0 | 0.0 | 3.0 | 0.00 | 0.00 | 0.00 | 84 | 1014.3 |
| 20260507154554 | 61 | 0 | 0.0 | 3.0 | 0.00 | 0.00 | 0.00 | 84 | 1014.5 |
| 20260507154041 | 61 | 88 | 0.0 | 3.0 | 0.00 | 0.00 | 0.00 | 84 | 1014.5 |
| 20260507153541 | 61 | 90 | 0.0 | 2.0 | 0.00 | 0.00 | 0.00 | 84 | 1014.6 |
| 20260507153052 | 61 | 91 | 1.0 | 4.0 | 0.00 | 0.00 | 0.00 | 84 | 1014.6 |
| 20260507152538 | 61 | 103 | 0.0 | 4.0 | 0.00 | 0.00 | 0.00 | 84 | 1014.7 |
| 20260507152038 | 61 | 62 | 0.0 | 4.0 | 0.00 | 0.00 | 0.00 | 85 | 1014.6 |
| 20260507151549 | 61 | 0 | 0.0 | 3.0 | 0.00 | 0.00 | 0.00 | 86 | 1014.7 |
| 20260507151038 | 60 | 0 | 0.0 | 3.0 | 0.00 | 0.00 | 0.00 | 87 | 1014.7 |
| 20260507150540 | 60 | 0 | 0.0 | 1.0 | 0.00 | 0.00 | 0.00 | 88 | 1014.8 |
| 20260507150052 | 60 | 0 | 0.0 | 3.0 | 0.00 | 0.00 | 0.00 | 88 | 1014.9 |
| 20260507145536 | 59 | 0 | 0.0 | 3.0 | 0.00 | 0.00 | 0.00 | 89 | 1014.9 |
| 20260507145039 | 59 | 0 | 0.0 | 1.0 | 0.00 | 0.00 | 0.00 | 89 | 1015.0 |
| 20260507144551 | 59 | 0 | 0.0 | 1.0 | 0.00 | 0.00 | 0.00 | 89 | 1015.1 |
| 20260507144037 | 59 | 0 | 0.0 | 0.0 | 0.00 | 0.00 | 0.00 | 89 | 1015.2 |
| 20260507143539 | 59 | 0 | 0.0 | 1.0 | 0.00 | 0.00 | 0.00 | 89 | 1015.2 |
| 20260507143049 | 59 | 0 | 0.0 | 1.0 | 0.00 | 0.00 | 0.00 | 89 | 1015.2 |
| 20260507142537 | 59 | 101 | 0.0 | 1.0 | 0.00 | 0.00 | 0.00 | 89 | 1015.4 |
| 20260507142037 | 59 | 0 | 0.0 | 2.0 | 0.00 | 0.00 | 0.00 | 89 | 1015.4 |
| 20260507141551 | 59 | 101 | 0.0 | 2.0 | 0.00 | 0.00 | 0.00 | 89 | 1015.4 |
| 20260507141039 | 59 | 101 | 1.0 | 2.0 | 0.00 | 0.00 | 0.00 | 88 | 1015.5 |
| 20260507140535 | 59 | 101 | 0.0 | 1.0 | 0.00 | 0.00 | 0.00 | 88 | 1015.5 |
| 20260507140106 | 59 | 0 | 0.0 | 1.0 | 0.00 | 0.00 | 0.00 | 88 | 1015.6 |
| 20260507135536 | 59 | 101 | 0.0 | 1.0 | 0.00 | 0.00 | 0.00 | 88 | 1015.7 |
| 20260507135039 | 59 | 101 | 0.0 | 1.0 | 0.00 | 0.00 | 0.00 | 88 | 1015.8 |
| 20260507134548 | 59 | 0 | 0.0 | 1.0 | 0.00 | 0.00 | 0.00 | 87 | 1015.8 |
| 20260507134038 | 59 | 101 | 0.0 | 0.0 | 0.00 | 0.00 | 0.00 | 87 | 1015.8 |
| 20260507133540 | 59 | 101 | 0.0 | 1.0 | 0.00 | 0.00 | 0.00 | 87 | 1015.8 |
| 20260507133048 | 58 | 0 | 0.0 | 1.0 | 0.00 | 0.00 | 0.00 | 88 | 1015.9 |
| 20260507132536 | 58 | 0 | 0.0 | 0.0 | 0.00 | 0.00 | 0.00 | 87 | 1015.9 |
| 20260507132038 | 58 | 0 | 0.0 | 1.0 | 0.00 | 0.00 | 0.00 | 87 | 1016.0 |
| 20260507131554 | 58 | 0 | 0.0 | 2.0 | 0.00 | 0.00 | 0.00 | 87 | 1016.0 |
| 20260507131042 | 58 | 101 | 1.0 | 2.0 | 0.00 | 0.00 | 0.00 | 88 | 1016.0 |
| 20260507130537 | 58 | 101 | 0.0 | 2.0 | 0.00 | 0.00 | 0.00 | 88 | 1016.1 |
| 20260507130058 | 58 | 0 | 0.0 | 2.0 | 0.00 | 0.00 | 0.00 | 88 | 1016.1 |
| 20260507125536 | 58 | 101 | 0.0 | 1.0 | 0.00 | 0.00 | 0.00 | 87 | 1016.1 |
| 20260507125037 | 58 | 0 | 0.0 | 1.0 | 0.00 | 0.00 | 0.00 | 87 | 1016.2 |
| 20260507124604 | 58 | 0 | 0.0 | 1.0 | 0.00 | 0.00 | 0.00 | 88 | 1016.2 |
| 20260507124036 | 58 | 101 | 0.0 | 1.0 | 0.00 | 0.00 | 0.00 | 88 | 1016.2 |
| 20260507123536 | 58 | 0 | 0.0 | 1.0 | 0.00 | 0.00 | 0.00 | 88 | 1016.3 |
| 20260507123058 | 58 | 0 | 0.0 | 1.0 | 0.00 | 0.00 | 0.00 | 87 | 1016.3 |
| 20260507122538 | 58 | 101 | 0.0 | 0.0 | 0.00 | 0.00 | 0.00 | 87 | 1016.3 |
| 20260507122040 | 58 | 0 | 0.0 | 0.0 | 0.00 | 0.00 | 0.00 | 87 | 1016.3 |
| 20260507121550 | 58 | 0 | 0.0 | 0.0 | 0.00 | 0.00 | 0.00 | 87 | 1016.4 |
| 20260507121039 | 58 | 0 | 0.0 | 0.0 | 0.00 | 0.00 | 0.00 | 87 | 1016.3 |
| 20260507120536 | 58 | 0 | 0.0 | 0.0 | 0.00 | 0.00 | 0.00 | 87 | 1016.2 |
| 20260507120054 | 58 | 0 | 0.0 | 0.0 | 0.00 | 0.00 | 0.00 | 87 | 1016.2 |
| 20260507115539 | 57 | 0 | 0.0 | 0.0 | 0.00 | 0.00 | 0.00 | 86 | 1016.2 |
| 20260507115038 | 57 | 0 | 0.0 | 0.0 | 0.00 | 0.00 | 0.00 | 86 | 1016.2 |
| 20260507114548 | 58 | 0 | 0.0 | 0.0 | 0.00 | 0.00 | 0.00 | 85 | 1016.2 |
| 20260507114040 | 58 | 0 | 0.0 | 1.0 | 0.00 | 0.00 | 0.00 | 85 | 1016.3 |
| 20260507113539 | 58 | 0 | 0.0 | 1.0 | 0.00 | 0.00 | 0.00 | 85 | 1016.4 |
| 20260507113049 | 58 | 0 | 0.0 | 1.0 | 0.00 | 0.00 | 0.00 | 85 | 1016.4 |
| 20260507112539 | 58 | 0 | 0.0 | 1.0 | 0.00 | 0.00 | 0.00 | 86 | 1016.5 |
| 20260507112038 | 58 | 0 | 0.0 | 1.0 | 0.00 | 0.00 | 0.00 | 86 | 1016.5 |
| 20260507111552 | 58 | 109 | 0.0 | 1.0 | 0.00 | 0.00 | 0.00 | 86 | 1016.4 |
| 20260507111038 | 58 | 0 | 0.0 | 1.0 | 0.00 | 0.00 | 0.00 | 85 | 1016.5 |
| 20260507110539 | 59 | 0 | 0.0 | 1.0 | 0.00 | 0.00 | 0.00 | 85 | 1016.6 |
| 20260507110051 | 59 | 109 | 0.0 | 1.0 | 0.00 | 0.00 | 0.00 | 85 | 1016.6 |
| 20260507105538 | 59 | 109 | 0.0 | 2.0 | 0.00 | 0.00 | 0.00 | 85 | 1016.7 |
| 20260507105038 | 59 | 109 | 1.0 | 2.0 | 0.00 | 0.00 | 0.00 | 85 | 1016.6 |
| 20260507104547 | 59 | 109 | 0.0 | 2.0 | 0.00 | 0.00 | 0.00 | 85 | 1016.9 |
| 20260507104039 | 59 | 109 | 1.0 | 2.0 | 0.00 | 0.00 | 0.00 | 85 | 1017.0 |
| 20260507103539 | 59 | 109 | 0.0 | 1.0 | 0.00 | 0.00 | 0.00 | 85 | 1017.0 |
| 20260507103046 | 59 | 0 | 0.0 | 1.0 | 0.00 | 0.00 | 0.00 | 85 | 1017.2 |
| 20260507102538 | 59 | 109 | 0.0 | 2.0 | 0.00 | 0.00 | 0.00 | 85 | 1017.1 |
| 20260507102038 | 60 | 109 | 0.0 | 2.0 | 0.00 | 0.00 | 0.00 | 85 | 1017.3 |
| 20260507101547 | 60 | 108 | 2.0 | 2.0 | 0.00 | 0.00 | 0.00 | 85 | 1017.2 |
| 20260507101041 | 59 | 109 | 1.0 | 2.0 | 0.00 | 0.00 | 0.00 | 85 | 1017.3 |
| 20260507100538 | 59 | 109 | 0.0 | 2.0 | 0.00 | 0.00 | 0.00 | 85 | 1017.4 |
| 20260507100043 | 59 | 0 | 0.0 | 0.0 | 0.00 | 0.00 | 0.00 | 85 | 1017.4 |
| 20260507095539 | 59 | 0 | 0.0 | 2.0 | 0.00 | 0.00 | 0.00 | 85 | 1017.6 |
| 20260507095039 | 59 | 0 | 0.0 | 2.0 | 0.00 | 0.00 | 0.00 | 85 | 1017.6 |
| 20260507094553 | 59 | 109 | 2.0 | 2.0 | 0.00 | 0.00 | 0.00 | 85 | 1017.6 |
| 20260507094038 | 59 | 107 | 2.0 | 2.0 | 0.00 | 0.00 | 0.00 | 85 | 1017.6 |
| 20260507093538 | 59 | 106 | 2.0 | 2.0 | 0.00 | 0.00 | 0.00 | 84 | 1017.5 |
| 20260507093051 | 60 | 106 | 1.0 | 2.0 | 0.00 | 0.00 | 0.00 | 83 | 1017.4 |
| 20260507092539 | 60 | 0 | 0.0 | 0.0 | 0.00 | 0.00 | 0.00 | 82 | 1017.5 |
| 20260507092041 | 60 | 0 | 0.0 | 0.0 | 0.00 | 0.00 | 0.00 | 81 | 1017.5 |
| 20260507091545 | 60 | 0 | 0.0 | 0.0 | 0.00 | 0.00 | 0.00 | 80 | 1017.5 |
| 20260507091038 | 61 | 0 | 0.0 | 0.0 | 0.00 | 0.00 | 0.00 | 80 | 1017.5 |
| 20260507090538 | 61 | 0 | 0.0 | 0.0 | 0.00 | 0.00 | 0.00 | 80 | 1017.5 |
| 20260507090051 | 61 | 0 | 0.0 | 0.0 | 0.00 | 0.00 | 0.00 | 80 | 1017.5 |
| 20260507085540 | 61 | 0 | 0.0 | 0.0 | 0.00 | 0.00 | 0.00 | 80 | 1017.6 |
| 20260507085039 | 61 | 0 | 0.0 | 0.0 | 0.00 | 0.00 | 0.00 | 80 | 1017.6 |
| 20260507084553 | 61 | 0 | 0.0 | 0.0 | 0.00 | 0.00 | 0.00 | 80 | 1017.7 |
| 20260507084036 | 61 | 0 | 0.0 | 0.0 | 0.00 | 0.00 | 0.00 | 80 | 1017.6 |
| 20260507083539 | 61 | 0 | 0.0 | 0.0 | 0.00 | 0.00 | 0.00 | 79 | 1017.7 |
| 20260507083050 | 61 | 0 | 0.0 | 0.0 | 0.00 | 0.00 | 0.00 | 79 | 1017.7 |
| 20260507082543 | 61 | 0 | 0.0 | 0.0 | 0.00 | 0.00 | 0.00 | 79 | 1017.7 |
| 20260507082039 | 61 | 0 | 0.0 | 0.0 | 0.00 | 0.00 | 0.00 | 80 | 1017.8 |
| 20260507081547 | 61 | 0 | 0.0 | 0.0 | 0.00 | 0.00 | 0.00 | 80 | 1017.7 |
| 20260507081040 | 61 | 0 | 0.0 | 0.0 | 0.00 | 0.00 | 0.00 | 80 | 1017.8 |
| 20260507080539 | 60 | 0 | 0.0 | 0.0 | 0.00 | 0.00 | 0.00 | 80 | 1017.9 |
| 20260507080116 | 61 | 0 | 0.0 | 0.0 | 0.00 | 0.00 | 0.00 | 79 | 1017.8 |
| 20260507075538 | 61 | 0 | 0.0 | 0.0 | 0.00 | 0.00 | 0.00 | 79 | 1017.7 |
| 20260507075038 | 61 | 0 | 0.0 | 0.0 | 0.00 | 0.00 | 0.00 | 78 | 1017.8 |
| 20260507074558 | 61 | 0 | 0.0 | 0.0 | 0.00 | 0.00 | 0.00 | 78 | 1017.7 |
| 20260507074039 | 62 | 0 | 0.0 | 1.0 | 0.00 | 0.00 | 0.00 | 77 | 1017.7 |
| 20260507073539 | 62 | 0 | 0.0 | 1.0 | 0.00 | 0.00 | 0.00 | 76 | 1017.6 |
| 20260507073058 | 62 | 115 | 0.0 | 1.0 | 0.00 | 0.00 | 0.00 | 76 | 1017.6 |
| 20260507072539 | 62 | 115 | 0.0 | 1.0 | 0.00 | 0.00 | 0.00 | 77 | 1017.6 |
| 20260507072037 | 62 | 115 | 0.0 | 1.0 | 0.00 | 0.00 | 0.00 | 78 | 1017.6 |
| 20260507071557 | 62 | 115 | 0.0 | 1.0 | 0.00 | 0.00 | 0.00 | 78 | 1017.7 |
| 20260507071041 | 62 | 129 | 0.0 | 1.0 | 0.00 | 0.00 | 0.00 | 78 | 1017.7 |
| 20260507070539 | 61 | 144 | 0.0 | 0.0 | 0.00 | 0.00 | 0.00 | 78 | 1017.7 |
| 20260507070049 | 61 | 0 | 0.0 | 0.0 | 0.00 | 0.00 | 0.00 | 78 | 1017.7 |
| 20260507065538 | 61 | 0 | 0.0 | 0.0 | 0.00 | 0.00 | 0.00 | 80 | 1017.7 |
| 20260507065038 | 61 | 0 | 0.0 | 0.0 | 0.00 | 0.00 | 0.00 | 80 | 1017.7 |
| 20260507064555 | 61 | 0 | 0.0 | 0.0 | 0.00 | 0.00 | 0.00 | 80 | 1017.8 |
| 20260507064038 | 61 | 0 | 0.0 | 0.0 | 0.00 | 0.00 | 0.00 | 80 | 1017.9 |
| 20260507063539 | 61 | 0 | 0.0 | 0.0 | 0.00 | 0.00 | 0.00 | 80 | 1017.9 |
| 20260507063046 | 61 | 0 | 0.0 | 0.0 | 0.00 | 0.00 | 0.00 | 80 | 1018.0 |
| 20260507062536 | 61 | 0 | 0.0 | 0.0 | 0.00 | 0.00 | 0.00 | 80 | 1018.0 |
| 20260507062039 | 61 | 0 | 0.0 | 0.0 | 0.00 | 0.00 | 0.00 | 80 | 1017.9 |
| 20260507061549 | 61 | 0 | 0.0 | 0.0 | 0.00 | 0.00 | 0.00 | 80 | 1017.9 |
| 20260507061036 | 61 | 0 | 0.0 | 0.0 | 0.00 | 0.00 | 0.00 | 80 | 1017.8 |
| 20260507060541 | 61 | 0 | 0.0 | 0.0 | 0.00 | 0.00 | 0.00 | 80 | 1017.8 |
| 20260507060050 | 61 | 0 | 0.0 | 0.0 | 0.00 | 0.00 | 0.00 | 79 | 1017.9 |
| 20260507055540 | 61 | 0 | 0.0 | 0.0 | 0.00 | 0.00 | 0.00 | 79 | 1017.9 |
| 20260507055038 | 62 | 0 | 0.0 | 0.0 | 0.00 | 0.00 | 0.00 | 79 | 1018.0 |
| 20260507054551 | 62 | 0 | 0.0 | 0.0 | 0.00 | 0.00 | 0.00 | 79 | 1018.0 |
| 20260507054040 | 62 | 0 | 0.0 | 1.0 | 0.00 | 0.00 | 0.00 | 79 | 1018.0 |
| 20260507053539 | 62 | 0 | 0.0 | 1.0 | 0.00 | 0.00 | 0.00 | 78 | 1017.9 |
| 20260507053048 | 62 | 153 | 0.0 | 1.0 | 0.00 | 0.00 | 0.00 | 77 | 1017.9 |
| 20260507052538 | 62 | 0 | 0.0 | 0.0 | 0.00 | 0.00 | 0.00 | 76 | 1018.0 |
| 20260507052039 | 63 | 153 | 0.0 | 1.0 | 0.00 | 0.00 | 0.00 | 76 | 1018.0 |
| 20260507051549 | 63 | 0 | 0.0 | 1.0 | 0.00 | 0.00 | 0.00 | 74 | 1017.9 |
| 20260507051038 | 64 | 153 | 0.0 | 1.0 | 0.00 | 0.00 | 0.00 | 73 | 1017.9 |
| 20260507050536 | 64 | 159 | 0.0 | 0.0 | 0.00 | 0.00 | 0.00 | 72 | 1017.8 |
| 20260507050044 | 65 | 0 | 0.0 | 0.0 | 0.00 | 0.00 | 0.00 | 70 | 1017.9 |
| 20260507045539 | 65 | 0 | 0.0 | 0.0 | 0.00 | 0.00 | 0.00 | 69 | 1017.8 |
| 20260507045039 | 66 | 0 | 0.0 | 0.0 | 0.00 | 0.00 | 0.00 | 68 | 1017.9 |
| 20260507044551 | 66 | 0 | 0.0 | 0.0 | 0.00 | 0.00 | 0.00 | 67 | 1018.0 |
| 20260507044038 | 67 | 0 | 0.0 | 0.0 | 0.00 | 0.00 | 0.00 | 66 | 1018.0 |
| 20260507043539 | 67 | 0 | 0.0 | 0.0 | 0.00 | 0.00 | 0.00 | 65 | 1018.0 |
| 20260507043048 | 68 | 0 | 0.0 | 1.0 | 0.00 | 0.00 | 0.00 | 64 | 1018.0 |
| 20260507042539 | 69 | 0 | 0.0 | 2.0 | 0.00 | 0.00 | 0.00 | 63 | 1018.0 |
| 20260507042038 | 69 | 0 | 0.0 | 6.0 | 0.00 | 0.00 | 0.00 | 62 | 1018.2 |
| 20260507041546 | 70 | 265 | 1.0 | 6.0 | 0.00 | 0.00 | 0.00 | 61 | 1018.1 |
| 20260507041059 | 70 | 63 | 0.0 | 4.0 | 0.00 | 0.00 | 0.00 | 60 | 1018.1 |
| 20260507040539 | 71 | 261 | 1.0 | 4.0 | 0.00 | 0.00 | 0.00 | 60 | 1018.2 |
| 20260507040058 | 71 | 68 | 0.0 | 3.0 | 0.00 | 0.00 | 0.00 | 60 | 1018.4 |
| 20260507035539 | 70 | 44 | 0.0 | 3.0 | 0.00 | 0.00 | 0.00 | 60 | 1018.3 |
| 20260507035038 | 70 | 0 | 0.0 | 7.0 | 0.00 | 0.00 | 0.00 | 60 | 1018.4 |
| 20260507034556 | 70 | 53 | 2.0 | 13.0 | 0.00 | 0.00 | 0.00 | 60 | 1018.5 |
| 20260507034035 | 70 | 292 | 3.0 | 13.0 | 0.00 | 0.00 | 0.00 | 59 | 1018.5 |
| 20260507033536 | 70 | 242 | 2.0 | 13.0 | 0.00 | 0.00 | 0.00 | 58 | 1018.4 |
| 20260507033048 | 71 | 232 | 4.0 | 13.0 | 0.00 | 0.00 | 0.00 | 56 | 1018.5 |
| 20260507032539 | 72 | 280 | 2.0 | 12.0 | 0.00 | 0.00 | 0.00 | 56 | 1018.7 |
| 20260507032036 | 73 | 346 | 3.0 | 12.0 | 0.00 | 0.00 | 0.00 | 55 | 1018.7 |
| 20260507031545 | 73 | 61 | 2.0 | 11.0 | 0.00 | 0.00 | 0.00 | 55 | 1018.7 |
| 20260507031036 | 72 | 261 | 2.0 | 9.0 | 0.00 | 0.00 | 0.00 | 55 | 1018.7 |
| 20260507030537 | 72 | 71 | 2.0 | 15.0 | 0.00 | 0.00 | 0.00 | 57 | 1018.7 |
| 20260507030053 | 71 | 306 | 3.0 | 15.0 | 0.00 | 0.00 | 0.00 | 56 | 1018.7 |
| 20260507025538 | 71 | 26 | 5.0 | 14.0 | 0.00 | 0.00 | 0.00 | 57 | 1018.8 |
| 20260507025040 | 71 | 228 | 5.0 | 14.0 | 0.00 | 0.00 | 0.00 | 58 | 1018.9 |
| 20260507024545 | 70 | 269 | 3.0 | 14.0 | 0.00 | 0.00 | 0.00 | 59 | 1019.0 |
| 20260507024040 | 70 | 185 | 4.0 | 14.0 | 0.00 | 0.00 | 0.00 | 58 | 1019.0 |
| 20260507023539 | 71 | 333 | 3.0 | 10.0 | 0.00 | 0.00 | 0.00 | 58 | 1019.1 |
| 20260507023047 | 71 | 52 | 2.0 | 8.0 | 0.00 | 0.00 | 0.00 | 57 | 1018.9 |
| 20260507022539 | 71 | 300 | 3.0 | 8.0 | 0.00 | 0.00 | 0.00 | 58 | 1019.0 |
| 20260507022038 | 71 | 336 | 3.0 | 9.0 | 0.00 | 0.00 | 0.00 | 58 | 1018.9 |
| 20260507021550 | 71 | 63 | 4.0 | 9.0 | 0.00 | 0.00 | 0.00 | 58 | 1018.9 |
| 20260507021037 | 71 | 223 | 2.0 | 8.0 | 0.00 | 0.00 | 0.00 | 57 | 1018.9 |
| 20260507020536 | 71 | 76 | 2.0 | 8.0 | 0.00 | 0.00 | 0.00 | 58 | 1019.0 |
| 20260507020057 | 71 | 248 | 2.0 | 8.0 | 0.00 | 0.00 | 0.00 | 58 | 1019.3 |
| 20260507015538 | 71 | 40 | 2.0 | 10.0 | 0.00 | 0.00 | 0.00 | 56 | 1019.2 |
| 20260507015038 | 71 | 255 | 2.0 | 11.0 | 0.00 | 0.00 | 0.00 | 57 | 1019.4 |
| 20260507014557 | 71 | 72 | 3.0 | 12.0 | 0.00 | 0.00 | 0.00 | 57 | 1019.4 |
| 20260507014036 | 71 | 320 | 3.0 | 16.0 | 0.00 | 0.00 | 0.00 | 55 | 1019.6 |
| 20260507013542 | 72 | 67 | 5.0 | 16.0 | 0.00 | 0.00 | 0.00 | 55 | 1019.6 |
| 20260507013045 | 72 | 195 | 3.0 | 15.0 | 0.00 | 0.00 | 0.00 | 55 | 1019.8 |
| 20260507012538 | 72 | 77 | 3.0 | 15.0 | 0.00 | 0.00 | 0.00 | 56 | 1019.8 |
| 20260507012038 | 72 | 54 | 3.0 | 15.0 | 0.00 | 0.00 | 0.00 | 56 | 1019.6 |
| 20260507011601 | 72 | 60 | 5.0 | 13.0 | 0.00 | 0.00 | 0.00 | 55 | 1019.8 |
| 20260507011039 | 72 | 300 | 3.0 | 10.0 | 0.00 | 0.00 | 0.00 | 55 | 1019.7 |
| 20260507010539 | 72 | 53 | 2.0 | 11.0 | 0.00 | 0.00 | 0.00 | 58 | 1019.8 |
| 20260507010048 | 71 | 242 | 3.0 | 14.0 | 0.00 | 0.00 | 0.00 | 60 | 1019.9 |
| 20260507005539 | 71 | 309 | 4.0 | 15.0 | 0.00 | 0.00 | 0.00 | 60 | 1019.9 |
| 20260507005041 | 71 | 269 | 5.0 | 16.0 | 0.00 | 0.00 | 0.00 | 58 | 1019.9 |
| 20260507004550 | 71 | 248 | 8.0 | 16.0 | 0.00 | 0.00 | 0.00 | 60 | 1019.9 |
| 20260507004039 | 71 | 254 | 5.0 | 13.0 | 0.00 | 0.00 | 0.00 | 61 | 1019.9 |
| 20260507003539 | 70 | 32 | 3.0 | 13.0 | 0.00 | 0.00 | 0.00 | 65 | 1020.0 |
| 20260507003047 | 70 | 277 | 7.0 | 13.0 | 0.00 | 0.00 | 0.00 | 63 | 1020.1 |
| 20260507002538 | 70 | 286 | 3.0 | 15.0 | 0.00 | 0.00 | 0.00 | 64 | 1020.3 |
| 20260507002039 | 70 | 248 | 4.0 | 15.0 | 0.00 | 0.00 | 0.00 | 66 | 1020.5 |
| 20260507001555 | 70 | 304 | 3.0 | 10.0 | 0.00 | 0.00 | 0.00 | 67 | 1020.6 |
| 20260507001038 | 69 | 128 | 3.0 | 8.0 | 0.00 | 0.00 | 0.00 | 67 | 1020.8 |
| 20260507000541 | 69 | 46 | 2.0 | 10.0 | 0.00 | 0.00 | 0.00 | 66 | 1020.8 |
| 20260507000051 | 69 | 265 | 3.0 | 11.0 | 0.00 | 0.00 | 0.00 | 67 | 1020.8 |
| 20260506235540 | 69 | 52 | 5.0 | 11.0 | 0.00 | 0.00 | 0.00 | 67 | 1020.9 |
| 20260506235038 | 69 | 325 | 4.0 | 11.0 | 0.00 | 0.00 | 0.00 | 66 | 1020.9 |
| 20260506234548 | 69 | 295 | 5.0 | 9.0 | 0.00 | 0.00 | 0.00 | 68 | 1020.9 |
| 20260506234039 | 70 | 47 | 3.0 | 8.0 | 0.00 | 0.00 | 0.00 | 67 | 1021.0 |
| 20260506233539 | 70 | 244 | 2.0 | 8.0 | 0.00 | 0.00 | 0.00 | 69 | 1021.0 |
| 20260506233049 | 70 | 46 | 2.0 | 6.0 | 0.00 | 0.00 | 0.00 | 67 | 1021.1 |
| 20260506232538 | 70 | 194 | 1.0 | 6.0 | 0.00 | 0.00 | 0.00 | 70 | 1021.2 |
| 20260506232038 | 69 | 184 | 1.0 | 6.0 | 0.00 | 0.00 | 0.00 | 70 | 1021.2 |
| 20260506231544 | 69 | 329 | 2.0 | 6.0 | 0.00 | 0.00 | 0.00 | 71 | 1021.3 |
| 20260506231039 | 68 | 63 | 2.0 | 7.0 | 0.00 | 0.00 | 0.00 | 72 | 1021.3 |
| 20260506230541 | 68 | 49 | 2.0 | 8.0 | 0.00 | 0.00 | 0.00 | 72 | 1021.5 |
| 20260506230052 | 67 | 53 | 3.0 | 8.0 | 0.00 | 0.00 | 0.00 | 73 | 1021.6 |
| 20260506225540 | 67 | 26 | 2.0 | 8.0 | 0.00 | 0.00 | 0.00 | 74 | 1021.6 |
| 20260506225038 | 66 | 263 | 2.0 | 6.0 | 0.00 | 0.00 | 0.00 | 76 | 1021.7 |
| 20260506224545 | 65 | 88 | 2.0 | 6.0 | 0.00 | 0.00 | 0.00 | 79 | 1021.8 |
| 20260506224038 | 65 | 217 | 3.0 | 6.0 | 0.00 | 0.00 | 0.00 | 82 | 1021.8 |
| 20260506223539 | 64 | 69 | 1.0 | 3.0 | 0.00 | 0.00 | 0.00 | 82 | 1021.8 |
| 20260506223039 | 63 | 101 | 1.0 | 3.0 | 0.00 | 0.00 | 0.00 | 82 | 1021.9 |
| 20260506222539 | 62 | 0 | 0.0 | 2.0 | 0.00 | 0.00 | 0.00 | 83 | 1021.9 |
| 20260506222039 | 62 | 0 | 0.0 | 2.0 | 0.00 | 0.00 | 0.00 | 84 | 1021.9 |
| 20260506221542 | 61 | 0 | 0.0 | 3.0 | 0.00 | 0.00 | 0.00 | 84 | 1021.9 |
| 20260506221039 | 60 | 111 | 1.0 | 3.0 | 0.00 | 0.00 | 0.00 | 85 | 1021.8 |
| 20260506220536 | 60 | 0 | 1.0 | 3.0 | 0.00 | 0.00 | 0.00 | 85 | 1022.0 |
| 20260506220106 | 59 | 94 | 1.0 | 3.0 | 0.00 | 0.00 | 0.00 | 85 | 1022.0 |
| 20260506215536 | 59 | 94 | 0.0 | 1.0 | 0.00 | 0.00 | 0.00 | 85 | 1022.2 |
| 20260506215038 | 58 | 94 | 0.0 | 2.0 | 0.00 | 0.00 | 0.00 | 86 | 1022.2 |
| 20260506214548 | 58 | 0 | 0.0 | 2.0 | 0.00 | 0.00 | 0.00 | 86 | 1022.2 |
| 20260506214036 | 58 | 94 | 1.0 | 2.0 | 0.00 | 0.00 | 0.00 | 86 | 1022.3 |
| 20260506213538 | 57 | 94 | 0.0 | 1.0 | 0.00 | 0.00 | 0.00 | 86 | 1022.4 |
| 20260506213050 | 57 | 0 | 0.0 | 1.0 | 0.00 | 0.00 | 0.00 | 86 | 1022.4 |
| 20260506212538 | 57 | 0 | 0.0 | 1.0 | 0.00 | 0.00 | 0.00 | 86 | 1022.4 |
| 20260506212041 | 57 | 0 | 0.0 | 4.0 | 0.00 | 0.00 | 0.00 | 88 | 1022.4 |
| 20260506211544 | 57 | 94 | 1.0 | 4.0 | 0.00 | 0.00 | 0.00 | 88 | 1022.5 |
| 20260506211039 | 57 | 104 | 3.0 | 4.0 | 0.00 | 0.00 | 0.00 | 89 | 1022.5 |
| 20260506210542 | 56 | 109 | 2.0 | 4.0 | 0.00 | 0.00 | 0.00 | 90 | 1022.5 |
| 20260506210045 | 56 | 107 | 2.0 | 4.0 | 0.00 | 0.00 | 0.00 | 90 | 1022.4 |
| 20260506205539 | 56 | 94 | 1.0 | 4.0 | 0.00 | 0.00 | 0.00 | 90 | 1022.5 |
| 20260506205041 | 56 | 94 | 1.0 | 4.0 | 0.00 | 0.00 | 0.00 | 91 | 1022.6 |
| 20260506204552 | 55 | 88 | 1.0 | 4.0 | 0.00 | 0.00 | 0.00 | 91 | 1022.7 |
| 20260506204038 | 56 | 88 | 0.0 | 2.0 | 0.00 | 0.00 | 0.00 | 92 | 1022.7 |
| 20260506203540 | 55 | 0 | 0.0 | 2.0 | 0.00 | 0.00 | 0.00 | 93 | 1022.9 |
| 20260506203138 | 55 | 0 | 1.0 | 4.0 | 0.00 | 0.00 | 0.00 | 94 | 1022.8 |
| 20260506202538 | 54 | 108 | 1.0 | 4.0 | 0.00 | 0.00 | 0.00 | 94 | 1022.8 |
| 20260506202040 | 54 | 88 | 2.0 | 4.0 | 0.00 | 0.00 | 0.00 | 95 | 1022.8 |
| 20260506201549 | 53 | 90 | 0.0 | 4.0 | 0.00 | 0.00 | 0.00 | 97 | 1022.8 |
| 20260506201039 | 51 | 84 | 1.0 | 4.0 | 0.00 | 0.00 | 0.00 | 97 | 1022.7 |
| 20260506200539 | 50 | 91 | 1.0 | 3.0 | 0.00 | 0.00 | 0.00 | 96 | 1022.8 |
| 20260506200052 | 50 | 94 | 1.0 | 2.0 | 0.00 | 0.00 | 0.00 | 96 | 1022.9 |
| 20260506195539 | 49 | 0 | 0.0 | 1.0 | 0.00 | 0.00 | 0.00 | 96 | 1022.9 |
| 20260506195039 | 49 | 0 | 0.0 | 1.0 | 0.00 | 0.00 | 0.00 | 96 | 1022.9 |
| 20260506194549 | 49 | 0 | 0.0 | 1.0 | 0.00 | 0.00 | 0.00 | 96 | 1022.8 |
| 20260506194040 | 49 | 94 | 0.0 | 1.0 | 0.00 | 0.00 | 0.00 | 96 | 1022.9 |
| 20260506193538 | 49 | 94 | 0.0 | 1.0 | 0.00 | 0.00 | 0.00 | 96 | 1023.1 |
| 20260506193049 | 49 | 94 | 1.0 | 1.0 | 0.00 | 0.00 | 0.00 | 96 | 1022.8 |
| 20260506192538 | 49 | 94 | 1.0 | 1.0 | 0.00 | 0.00 | 0.00 | 96 | 1022.9 |
| 20260506192038 | 49 | 0 | 0.0 | 1.0 | 0.00 | 0.00 | 0.00 | 96 | 1022.9 |
| 20260506191552 | 49 | 0 | 0.0 | 0.0 | 0.00 | 0.00 | 0.00 | 96 | 1022.9 |
| 20260506191039 | 49 | 0 | 0.0 | 0.0 | 0.00 | 0.00 | 0.00 | 96 | 1022.8 |
| 20260506190540 | 49 | 0 | 0.0 | 1.0 | 0.00 | 0.00 | 0.00 | 96 | 1022.9 |
| 20260506190049 | 49 | 0 | 0.0 | 1.0 | 0.00 | 0.00 | 0.00 | 97 | 1022.8 |
| 20260506185540 | 49 | 0 | 0.0 | 1.0 | 0.00 | 0.00 | 0.00 | 96 | 1022.7 |
| 20260506185039 | 49 | 0 | 0.0 | 1.0 | 0.00 | 0.00 | 0.00 | 96 | 1022.8 |
| 20260506184552 | 49 | 0 | 0.0 | 1.0 | 0.00 | 0.00 | 0.00 | 96 | 1022.8 |
| 20260506184040 | 49 | 0 | 0.0 | 1.0 | 0.00 | 0.00 | 0.00 | 96 | 1022.7 |
| 20260506183538 | 49 | 0 | 0.0 | 1.0 | 0.00 | 0.00 | 0.00 | 96 | 1022.8 |
| 20260506183049 | 49 | 94 | 0.0 | 1.0 | 0.00 | 0.00 | 0.00 | 96 | 1022.6 |
| 20260506182538 | 49 | 0 | 0.0 | 1.0 | 0.00 | 0.00 | 0.00 | 95 | 1022.8 |
| 20260506182042 | 49 | 0 | 0.0 | 1.0 | 0.00 | 0.00 | 0.00 | 95 | 1022.8 |
| 20260506181547 | 50 | 95 | 0.0 | 1.0 | 0.00 | 0.00 | 0.00 | 96 | 1022.7 |
| 20260506181039 | 50 | 94 | 0.0 | 2.0 | 0.00 | 0.00 | 0.00 | 96 | 1022.9 |
| 20260506180540 | 50 | 0 | 1.0 | 2.0 | 0.00 | 0.00 | 0.00 | 96 | 1022.9 |
| 20260506180053 | 50 | 94 | 0.0 | 2.0 | 0.00 | 0.00 | 0.00 | 96 | 1022.9 |